METEOR 2-17 DEB, 35366

Orbit data source: Space-Track

METEOR 2-17 DEB, 35366 is space debris in LEO originally from a launch on Sat, 30 Jan 1988 UTC launched from the Plesetsk Missile And Space Complex (PKMTR). Debris objects in space refer to the collection of defunct objects orbiting the Earth. Examples of debris include non-operational satellites, rocket bodies, and fragments generated from explosions, collisions, or faulty payload assembly.

Loading next visibility...
Identifier
35366, 1988-005AA
Orbit
LEO
Last TLE update
4 days ago
Origin
Manufacturer
Unknown
Mission
Spacecraft
Bus & Motor
Unknown
Mass
Unknown
Launch date (UTC)
1988-01-30 (37 years ago)
Launch vehicle
Unknown
Launch site
Plesetsk Missile And Space Complex (PKMTR)
Object type
Payload
Rocket body
Debris
Shape & HBR
Unknown
Radar Cross Section
Small (<0.1 m²)

Expand to show TLE details & history

TLE from 4 days ago
0 METEOR 2-17 DEB
1 35366U 88005AA  25125.57698413  .00001949  00000-0  12763-2 0  9996
2 35366  82.5286 236.0228 0008764 293.2304  84.9128 14.01676679602622
Epoch: 2025-05-05T13:50Z
Definitive object data (Epoch: 2025-05-05T13:50:51.428Z)
Latitude
18.07541°
Longitude
167.06022°
Altitude
889.809 km
Speed
7.409 km/s
True Right ascension
15h 53m 51s
True Declination
17° 58' 34"
Sunlit
Object was in full shadow at TLE epoch
Visualization TLE readout
Latitude
65.06482°
Longitude
177.80641°
Altitude
904.307 km
Speed
7.403 km/s
Apparent Right ascension
05h 42m 54s
Apparent Declination
53° 19' 23"
Sunlit
Object is in daylight
Visualization observer readout
Local Sidereal Time
17:01:45
Azimuth
353.862° N
Elevation
3.662°
Doppler factor
1
Orbital elements
Apogee altitude
891.489 km
Perigee altitude
878.758 km
Semi-major axis
7,263.26 km
Eccentricity
0.0008764
Inclination
82.5286°
RAAN
236.0228°
Arg. of periapsis
293.2304°
True anomaly
85.01284°
Mean anomaly
84.9128°
Eccentric anomaly
84.96282°
Mean motion
3.50627 °/min
BSTAR
0.0012763
Orbital period
102.67 mins
Loading maneuver chart data...
Loading SW <> Apogee altitude chart data...
Loading historical data...
Loading historical data...
Loading historical data...
Loading historical data...
Loading historical data...
Loading historical data...
Loading historical data...

METEOR 2-17 DEB Visibility forecast

Observer location: undefined°, undefined°

Span
Click to sort rows by Start time (UTC) header in descending order
Start Az.
Max El. time (UTC)
Max El. Az.
Max El.
End time (UTC)
End Az.
8 mins2025-05-09 17:42:31.075Z21.349° NNE2025-05-09 17:46:31.075Z68.574° E22.487°2025-05-09 17:50:31.075Z119.369° SE
9 mins2025-05-09 19:26:31.075Z332.249° NNW2025-05-09 19:30:31.075Z267.374° W34.66°2025-05-09 19:35:31.075Z200.676° SSW
9 mins2025-05-10 06:57:31.075Z150.688° SSE2025-05-10 07:01:31.075Z85.262° E33.188°2025-05-10 07:06:31.075Z23.059° NE
8 mins2025-05-10 08:41:31.075Z241.257° WSW2025-05-10 08:44:31.075Z279.502° WNW23.427°2025-05-10 08:49:31.075Z341.539° N
|